Location: Newark
(43.0000°N, 1.6781°W)
Time: 15:11:01
(UTC+00:00)

S-56A Canister/Altair - Visible Passes

Search period start: 11 April 2021 00:00
Search period end: 21 April 2021 00:00
Orbit: 632 x 2500 km, 38.9° (Epoch: 10 April)

Date Brightness Start Highest point End Pass type
(mag) Time Alt. Az. Time Alt. Az. Time Alt. Az.
11 Apr 8.3 02:59:14 32° SE 02:59:14 32° SE 03:02:13 10° E visible
11 Apr 7.6 04:56:59 10° W 05:01:16 51° S 05:06:09 10° ESE visible
12 Apr 9.2 02:28:11 19° ESE 02:28:11 19° ESE 02:29:40 10° E visible
12 Apr 7.4 04:25:36 17° WSW 04:28:48 52° S 04:33:25 10° ESE visible
13 Apr 9.9 01:57:09 10° E 01:57:09 10° E 01:57:10 10° E visible
13 Apr 7.4 03:54:34 31° WSW 03:56:20 52° S 04:00:47 10° ESE visible
14 Apr 7.3 03:23:32 50° SSW 03:23:52 52° S 03:28:12 10° ESE visible
15 Apr 7.9 02:52:31 41° SE 02:52:31 41° SE 02:55:41 10° E visible
15 Apr 7.8 04:50:28 10° W 04:54:35 37° SSW 04:58:58 10° SE visible
16 Apr 9.0 02:21:31 23° ESE 02:21:31 23° ESE 02:23:14 10° E visible
16 Apr 7.7 04:18:56 16° WSW 04:22:07 40° SSW 04:26:25 10° ESE visible
17 Apr 9.8 01:50:33 12° E 01:50:33 12° E 01:50:49 10° E visible
17 Apr 7.5 03:47:59 30° WSW 03:49:40 44° SSW 03:53:55 10° ESE visible
18 Apr 7.4 03:17:03 47° SSW 03:17:13 47° S 03:21:27 10° ESE visible
19 Apr 8.1 02:46:11 36° SE 02:46:11 36° SE 02:49:03 10° ESE visible
19 Apr 8.5 04:44:15 10° WSW 04:47:43 22° SSW 04:51:11 10° SSE visible
20 Apr 9.2 02:15:24 19° ESE 02:15:24 19° ESE 02:16:40 10° ESE visible
20 Apr 8.3 04:12:50 16° WSW 04:15:16 25° SSW 04:18:55 10° SSE visible
20 Apr 10.5 21:25:06 10° SSW 21:26:50 14° S 21:26:50 14° S visible
